TimeMDT,TemperatureF,Dew PointF,Humidity,Sea Level PressureIn,VisibilityMPH,Wind Direction,Wind SpeedMPH,Gust SpeedMPH,PrecipitationIn,Events,Conditions,WindDirDegrees,DateUTC
12:02 AM,-9999,-9999,N/A,-9999,-9999.0,North,-9999.0,-,0.04,,Unknown,0,2013-08-02 06:02:00
12:10 AM,62.6,59.0,88,30.27,-9999.0,West,6.9,-,0.09,Rain-Thunderstorm,Heavy Thunderstorms and Rain,280,2013-08-02 06:10:00
12:53 AM,61.0,59.0,93,30.10,4.0,Calm,Calm,-,0.13,Rain-Thunderstorm,Rain,0,2013-08-02 06:53:00
1:10 AM,60.8,60.8,100,30.28,6.0,SSE,8.1,-,0.05,Rain,Rain,160,2013-08-02 07:10:00
1:53 AM,61.0,59.0,93,30.04,10.0,ESE,16.1,-,0.10,Rain,Light Rain,120,2013-08-02 07:53:00
2:53 AM,60.1,55.9,86,30.04,10.0,SE,16.1,-,0.02,Rain,Light Rain,130,2013-08-02 08:53:00
3:53 AM,61.0,55.0,81,30.03,10.0,South,13.8,19.6,0.00,,Clear,170,2013-08-02 09:53:00
4:53 AM,60.1,54.0,80,30.01,10.0,ESE,12.7,-,N/A,,Clear,110,2013-08-02 10:53:00
5:53 AM,59.0,55.0,87,30.03,10.0,Calm,Calm,-,N/A,,Overcast,0,2013-08-02 11:53:00
6:53 AM,60.1,55.0,83,30.05,10.0,Calm,Calm,-,N/A,,Overcast,0,2013-08-02 12:53:00
7:53 AM,61.0,55.9,83,30.06,10.0,East,3.5,-,N/A,,Clear,90,2013-08-02 13:53:00
8:53 AM,64.0,55.0,73,30.06,10.0,South,4.6,-,N/A,,Partly Cloudy,180,2013-08-02 14:53:00
9:53 AM,68.0,55.9,65,30.05,10.0,Calm,Calm,-,N/A,,Clear,0,2013-08-02 15:53:00
10:53 AM,71.1,54.0,55,30.04,10.0,Calm,Calm,-,N/A,,Clear,0,2013-08-02 16:53:00
11:53 AM,73.9,55.9,53,30.03,10.0,Calm,Calm,-,N/A,,Clear,0,2013-08-02 17:53:00
12:53 PM,78.1,57.9,50,30.00,10.0,Variable,4.6,-,N/A,,Clear,0,2013-08-02 18:53:00
1:53 PM,80.1,60.1,50,29.97,10.0,NNW,6.9,-,N/A,,Clear,340,2013-08-02 19:53:00
2:53 PM,82.9,54.0,37,29.94,10.0,North,5.8,-,N/A,,Clear,350,2013-08-02 20:53:00
3:53 PM,82.0,52.0,35,29.92,10.0,NNW,11.5,-,N/A,,Clear,330,2013-08-02 21:53:00
4:53 PM,84.0,48.0,28,29.91,10.0,NNW,9.2,16.1,N/A,,Clear,330,2013-08-02 22:53:00
5:53 PM,82.9,53.1,36,29.91,10.0,NNW,8.1,-,N/A,,Clear,340,2013-08-02 23:53:00
6:53 PM,82.0,55.0,39,29.91,10.0,WNW,5.8,-,N/A,,Clear,300,2013-08-03 00:53:00
7:53 PM,79.0,57.9,48,29.92,10.0,West,3.5,-,N/A,,Clear,260,2013-08-03 01:53:00
8:53 PM,75.9,60.1,58,29.93,10.0,East,3.5,-,N/A,,Clear,100,2013-08-03 02:53:00
9:53 PM,73.0,60.1,64,29.94,10.0,SE,6.9,-,N/A,,Clear,130,2013-08-03 03:53:00
10:53 PM,72.0,57.0,59,29.94,10.0,SE,9.2,-,N/A,,Clear,130,2013-08-03 04:53:00
11:53 PM,70.0,57.0,63,29.94,10.0,SSE,5.8,-,N/A,,Clear,150,2013-08-03 05:53:00